Location: Dehesa de la Cepeda
(40.6574°N, 4.3013°W)
Time: 10:16:32
(UTC+00:00)

Explorer 11/Cluster Stage 4 - All Passes

Search period start: 03 August 2021 00:00
Search period end: 13 August 2021 00:00
Orbit: 467 x 1257 km, 28.8° (Epoch: 02 August)

Date Brightness Start Highest point End Pass type
(mag) Time Alt. Az. Time Alt. Az. Time Alt. Az.
03 Aug - 07:40:41 10° SSW 07:46:10 22° SSE 07:52:00 10° ESE daylight
03 Aug - 09:27:31 10° SW 09:34:30 34° S 09:41:39 10° ESE daylight
03 Aug - 11:15:58 10° WSW 11:23:04 33° S 11:29:57 10° SE daylight
03 Aug - 13:05:46 10° WSW 13:11:21 20° SSW 13:16:33 10° SSE daylight
04 Aug - 07:29:12 10° SSW 07:34:45 23° SSE 07:40:45 10° ESE daylight
04 Aug - 09:16:11 10° SW 09:23:05 34° S 09:30:18 10° ESE daylight
04 Aug - 11:04:38 10° WSW 11:11:39 32° S 11:18:33 10° SE daylight
04 Aug - 12:54:36 10° WSW 12:59:55 19° SSW 13:04:57 10° SSE daylight
05 Aug - 07:17:47 10° SSW 07:23:20 24° SSE 07:29:27 10° ESE daylight
05 Aug - 09:04:53 10° WSW 09:11:40 34° S 09:18:53 10° ESE daylight
05 Aug - 10:53:21 10° WSW 11:00:14 31° SSW 11:07:07 10° SE daylight
05 Aug - 12:43:31 10° WSW 12:48:28 17° SSW 12:53:16 10° SSE daylight
06 Aug - 05:23:44 10° SSE 05:24:16 10° SSE 05:24:50 10° SE daylight
06 Aug - 07:06:26 10° SW 07:11:57 25° SSE 07:18:06 10° ESE daylight
06 Aug - 08:53:37 10° WSW 09:00:17 34° S 09:07:28 10° ESE daylight
06 Aug - 10:42:08 10° WSW 10:48:49 29° SSW 10:55:36 10° SE daylight
06 Aug - 12:32:33 10° WSW 12:37:02 16° SSW 12:41:26 10° S daylight
07 Aug - 05:11:13 10° SSE 05:12:55 11° SSE 05:14:41 10° SE daylight
07 Aug - 06:55:10 10° SW 07:00:35 26° SSE 07:06:43 10° ESE daylight
07 Aug - 08:42:25 10° WSW 08:48:53 34° S 08:56:01 10° ESE daylight
07 Aug - 10:30:57 10° WSW 10:37:23 28° SSW 10:44:03 10° SE daylight
07 Aug - 12:21:44 10° WSW 12:25:35 14° SSW 12:29:24 10° S daylight
08 Aug - 04:59:23 10° S 05:01:33 12° SSE 05:03:52 10° SE daylight
08 Aug - 06:43:56 10° SW 06:49:14 27° SSE 06:55:18 10° ESE daylight
08 Aug - 08:31:15 10° WSW 08:37:30 33° S 08:44:30 10° ESE daylight
08 Aug - 10:19:50 10° WSW 10:25:58 26° SSW 10:32:25 10° SE daylight
08 Aug - 12:11:13 10° SW 12:14:09 12° SSW 12:17:04 10° S daylight
09 Aug - 04:47:47 10° S 04:50:14 13° SSE 04:52:53 10° SE visible
09 Aug - 06:32:45 10° SW 06:37:53 27° SSE 06:43:53 10° ESE daylight
09 Aug - 08:20:07 10° WSW 08:26:09 32° S 08:32:58 10° SE daylight
09 Aug - 10:08:47 10° WSW 10:14:34 24° SSW 10:20:43 10° SSE daylight
09 Aug - 12:01:34 10° SW 12:02:43 10° SSW 12:03:52 10° SSW daylight
10 Aug - 04:36:20 10° S 04:38:56 13° SSE 04:41:47 10° SE visible
10 Aug - 06:21:38 10° SW 06:26:36 27° SSE 06:32:25 10° ESE daylight
10 Aug - 08:09:03 10° WSW 08:14:48 30° S 08:21:24 10° SE daylight
10 Aug - 09:57:48 10° WSW 10:03:11 21° SSW 10:08:55 10° SSE daylight
11 Aug - 04:24:59 10° S 04:27:40 14° SSE 04:30:36 10° SE visible
11 Aug - 06:10:32 10° SW 06:15:19 27° S 06:20:56 10° ESE daylight
11 Aug - 07:58:01 10° WSW 08:03:30 28° S 08:09:47 10° SE daylight
11 Aug - 09:46:56 10° WSW 09:51:48 19° SSW 09:57:01 10° SSE daylight
12 Aug - 04:13:42 10° S 04:16:24 14° SSE 04:19:24 10° SE visible
12 Aug - 05:59:30 10° SW 06:04:03 26° S 06:09:28 10° ESE daylight
12 Aug - 07:47:02 10° WSW 07:52:11 26° S 07:58:09 10° SE daylight
12 Aug - 09:36:11 10° WSW 09:40:26 17° SSW 09:45:00 10° SSE daylight
